Crescent City, CA

11:59 AM PST on February 08, 2016 (GMT -0800)
McNamara

Weather History for KCEC - February, 2014

Change the Weather History Date:

Wednesday, February 26, 2014

  Actual Average Record
Temperature  
Mean Temperature 54 °F 48 °F  
Max Temperature 61 °F 54 °F 76 °F (1986)
Min Temperature 46 °F 42 °F 26 °F (1996)
Degree Days  
Heating Degree Days 11 17  
Month to date heating degree days 424 456  
Since 1 July heating degree days 3145 3142  
Cooling Degree Days 0 0  
Month to date cooling degree days 0 0  
Year to date cooling degree days 0 0  
Growing Degree Days 3 (Base 50)    
Moisture  
Dew Point 50 °F    
Average Humidity 82    
Maximum Humidity 96    
Minimum Humidity 67    
Precipitation  
Precipitation 0.45 in 0.30 in 3.40 in (2000)
Month to date precipitation 9.41 8.27  
Year to date precipitation 11.56 18.66  
Since 1 July precipitation 20.55  
Snow  
Snow 0.00 in - - ()
Month to date snowfall 0.0  
Since 1 July snowfall 0.0  
Snow Depth 0.00 in    
Sea Level Pressure  
Sea Level Pressure 29.71 in    
Wind  
Wind Speed 5 mph (SE)    
Max Wind Speed 26 mph    
Max Gust Speed 32 mph    
Visibility 6 miles    
Events Rain    
T = Trace of Precipitation, MM = Missing Value Source: NWS Daily Summary

Daily Weather History Graph

Daily Weather History Graph

Search for Another Location

Airport or City:

Trip Planner

Search our weather history database for the weather conditions in past years. The results will help you decide how hot, cold, wet, or windy it might be!

Date:

Astronomy

Feb. 26, 2014 Rise Set
Actual Time 6:56 AM PST 6:03 PM PST
Civil Twilight 6:28 AM PST 6:31 PM PST
Nautical Twilight 5:56 AM PST 7:04 PM PST
Astronomical Twilight 5:23 AM PST 7:36 PM PST
Moon 4:49 AM PST (2/26) 3:23 PM PST (2/26)
Length of Visible Light 12h 03m
Length of Day
11h 07m
Waning Crescent, 9% of the Moon is Illuminated
Feb 26
Waning Crescent
Mar 1
New
Mar 8
First Quarter
Mar 16
Full
Mar 23
Last Quarter

Hourly Weather History & Observations

Time (PST) Temp. Dew Point Humidity Pressure Visibility Wind Dir Wind Speed Gust Speed Precip Events Conditions
12:56 AM 46.0 °F 43.0 °F 89% 29.83 in 10.0 mi Calm Calm - N/A   Clear
1:56 AM 51.1 °F 48.0 °F 89% 29.86 in 8.0 mi South 8.1 mph - N/A   Scattered Clouds
2:56 AM 50.0 °F 48.0 °F 93% 29.86 in 10.0 mi Calm Calm - N/A   Overcast
3:56 AM 51.1 °F 48.0 °F 89% 29.85 in 10.0 mi South 4.6 mph - N/A   Overcast
4:56 AM 51.1 °F 48.0 °F 89% 29.86 in 9.0 mi East 4.6 mph - 0.00 in Rain Light Rain
5:56 AM 50.0 °F 46.9 °F 89% 29.86 in 9.0 mi East 5.8 mph - 0.01 in Rain Light Rain
6:56 AM 50.0 °F 48.0 °F 93% 29.83 in 10.0 mi ENE 3.5 mph - 0.02 in Rain Light Rain
7:56 AM 50.0 °F 48.0 °F 93% 29.81 in 10.0 mi ENE 3.5 mph - 0.00 in   Mostly Cloudy
8:56 AM 53.1 °F 51.1 °F 93% 29.82 in 10.0 mi SSE 4.6 mph - N/A   Overcast
9:56 AM 57.0 °F 51.1 °F 81% 29.81 in 10.0 mi SSE 8.1 mph - N/A   Scattered Clouds
10:56 AM 60.1 °F 50.0 °F 69% 29.78 in 10.0 mi ESE 3.5 mph - N/A   Mostly Cloudy
11:56 AM 59.0 °F 48.9 °F 69% 29.77 in 10.0 mi Calm Calm - N/A   Overcast
12:56 PM 57.9 °F 50.0 °F 75% 29.74 in 6.0 mi WNW 6.9 mph - N/A   Haze
1:56 PM 57.9 °F 50.0 °F 75% 29.69 in 8.0 mi NW 4.6 mph - 0.00 in   Overcast
2:56 PM 55.0 °F 50.0 °F 83% 29.67 in 4.0 mi NNW 5.8 mph - 0.00 in Rain Light Rain
3:15 PM 54.0 °F 50.0 °F 86% 29.67 in 2.5 mi WNW 3.5 mph - 0.01 in Rain Light Rain
3:27 PM 54.0 °F 50.0 °F 86% 29.67 in 3.0 mi WNW 3.5 mph - 0.02 in Rain Light Rain
3:51 PM 53.6 °F 51.8 °F 94% 29.68 in 2.0 mi West 3.5 mph - 0.05 in Rain Rain
3:56 PM 54.0 °F 51.1 °F 90% 29.68 in 1.8 mi West 3.5 mph - 0.05 in Rain Rain
4:14 PM 53.1 °F 51.1 °F 93% 29.69 in 1.2 mi Calm Calm - 0.04 in Rain Rain
4:24 PM 53.1 °F 51.1 °F 93% 29.69 in 1.8 mi Calm Calm - 0.06 in Rain Rain
4:31 PM 53.1 °F 50.0 °F 89% 29.68 in 2.5 mi Calm Calm - 0.07 in Rain Rain
4:44 PM 53.1 °F 50.0 °F 89% 29.67 in 3.0 mi NE 6.9 mph - 0.09 in Rain Light Rain
4:56 PM 53.1 °F 51.1 °F 93% 29.66 in 6.0 mi NNE 5.8 mph - 0.09 in Rain Light Rain
5:56 PM 53.1 °F 51.1 °F 93% 29.63 in 9.0 mi Calm Calm - 0.00 in   Overcast
6:36 PM 52.0 °F 50.0 °F 93% 29.62 in 2.5 mi NNW 5.8 mph - 0.00 in Rain Light Rain
6:56 PM 52.0 °F 51.1 °F 97% 29.62 in 2.5 mi East 3.5 mph - 0.01 in Rain Light Rain
7:03 PM 52.0 °F 51.1 °F 97% 29.62 in 3.0 mi ESE 3.5 mph - 0.00 in   Overcast
7:56 PM 53.1 °F 51.1 °F 93% 29.60 in 8.0 mi East 4.6 mph - 0.00 in Rain Light Rain
8:56 PM 53.1 °F 51.1 °F 93% 29.61 in 3.0 mi South 5.8 mph - 0.02 in Rain Light Rain
9:42 PM 53.1 °F 51.1 °F 93% 29.61 in 2.5 mi Calm Calm - 0.06 in Rain Light Rain
9:56 PM 53.1 °F 51.1 °F 93% 29.63 in 4.0 mi South 8.1 mph - 0.06 in Rain Light Rain
10:05 PM 53.1 °F 51.1 °F 93% 29.62 in 4.0 mi South 6.9 mph - 0.01 in Rain Light Rain
10:15 PM 53.1 °F 51.1 °F 93% 29.63 in 4.0 mi South 10.4 mph - 0.03 in Rain Rain
10:56 PM 52.0 °F 50.0 °F 93% 29.65 in 6.0 mi SSE 19.6 mph 29.9 mph 0.15 in Rain Light Rain
11:06 PM 52.0 °F 50.0 °F 93% 29.63 in 6.0 mi SSE 15.0 mph - 0.02 in Rain Light Rain
11:56 PM 51.1 °F 48.9 °F 92% 29.62 in 10.0 mi ESE 6.9 mph - 0.04 in Rain Light Rain